sat.trackr.live / text

‹ back to catalog

STARLINK-34109

NORAD 63807 · 2025-092D

PAYLOAD ACTIVE UNKNOWN

§ Identity

Operator
Country
US
Launch date
2025-05-04
Launch site
AFETR
Launch vehicle
Mass (kg)
RCS (m²)

Purposes: comms

External: N2YO · Heavens-Above · Gunter

§ Orbital elements

Epoch: 2026-09-19T23:52:26.583168Z

Period
94.27 min
Inclination
42.9977°
Eccentricity
0.0000755
Mean motion
15.27603522 rev/d
Perigee alt
482.5 km
Apogee alt
483.5 km
Semi-major
6,861.1 km
B*
3.7369e-4
RAAN
154.9873°
Arg perigee
248.8090°
Mean anomaly
111.2681°
Rev number
7,833

§ Raw data

STARLINK-341091 63807U 25092D   26262.99475212  .00010043  00000+0  37369-3 0  99972 63807  42.9977 154.9873 0000755 248.8090 111.2681 15.27603522 78333

JSON: /api/v1/satellites/63807 · /tle

For live sub-satellite position, see the globe view (requires WebGL).

§ Visibility from observer

Set your observer location to see the next 7 days of passes ≥ 10°. The values pass through the URL so the page stays shareable.

No JS? Fill the form by hand. The geolocation button needs JavaScript.